KE0MVE Weather Reports


time (UTC)temp
F
wind
direction
speed
knots
gust
knots
rain 1hr
in
rain 24hr
in
rain mn
in
humidity
%
barometer
mb
20220525014531 63 97 0.9 3.5 0.00 0.00 0.00 39 988.1
20220525013026 64 64 0.0 3.5 0.00 0.00 0.00 38 988.1
20220525011521 64 6 0.0 7.0 0.00 0.00 0.00 36 988.0
20220525010019 65 72 1.7 6.1 0.00 0.00 0.00 35 987.5
20220525004523 65 62 3.5 7.8 0.00 0.00 0.00 35 987.4
20220525003001 66 108 0.9 5.2 0.00 0.00 0.00 36 987.4
20220525001637 66 53 1.7 7.0 0.00 0.00 0.00 35 987.3
20220525000107 67 55 0.9 6.1 0.00 0.00 0.00 35 987.4
20220524234557 67 123 1.7 6.1 0.00 0.00 0.00 34 987.4
20220524233111 67 87 1.7 6.1 0.00 0.00 0.00 32 987.5
20220524231617 68 77 0.9 5.2 0.00 0.00 0.00 31 987.6
20220524230055 68 117 1.7 8.7 0.00 0.00 0.00 31 987.7
20220524224556 68 89 2.6 10.4 0.00 0.00 0.00 32 987.7
20220524223215 68 97 1.7 7.0 0.00 0.00 0.00 32 987.7
20220524221553 69 76 0.9 7.8 0.00 0.00 0.00 31 987.7
20220524220051 69 39 2.6 7.8 0.00 0.00 0.00 32 987.8
20220524214552 69 103 2.6 8.7 0.00 0.00 0.00 31 987.8
20220524213049 69 113 1.7 7.0 0.00 0.00 0.00 31 987.8
20220524211555 69 238 1.7 6.1 0.00 0.00 0.00 32 987.9
20220524210010 69 113 1.7 9.6 0.00 0.00 0.00 31 988.0
20220524204507 68 101 3.5 9.6 0.00 0.00 0.00 31 988.3
20220524203005 68 120 0.9 8.7 0.00 0.00 0.00 31 988.5
20220524201504 69 115 2.6 7.0 0.00 0.00 0.00 29 988.5
20220524200058 68 250 1.7 12.2 0.00 0.00 0.00 32 988.6
20220524194549 68 137 2.6 9.6 0.00 0.00 0.00 33 988.8
20220524193047 68 103 2.6 10.4 0.00 0.00 0.00 35 988.9
20220524191546 68 145 1.7 7.0 0.00 0.00 0.00 38 988.9
20220524190042 67 90 1.7 7.8 0.00 0.00 0.00 36 989.2
20220524184539 67 131 1.7 7.8 0.00 0.00 0.00 37 989.5
20220524183046 67 103 2.6 10.4 0.00 0.00 0.00 36 989.5
20220524181538 67 77 2.6 11.3 0.00 0.00 0.00 38 989.8
20220524180023 67 108 3.5 8.7 0.00 0.00 0.00 37 989.9
20220524174522 67 98 2.6 7.8 0.00 0.00 0.00 38 990.0
20220524173029 67 110 1.7 6.1 0.00 0.00 0.00 40 990.1
20220524171527 67 79 1.7 7.0 0.00 0.00 0.00 38 990.3
20220524170015 66 24 0.9 7.0 0.00 0.00 0.00 40 990.3
20220524164521 66 150 2.6 7.8 0.00 0.00 0.00 39 990.4
20220524163021 65 141 1.7 6.1 0.00 0.00 0.00 40 990.5
20220524161517 65 326 0.9 6.1 0.00 0.00 0.00 38 990.5
20220524160059 64 98 3.5 7.0 0.00 0.00 0.00 40 990.6
20220524154605 65 77 3.5 8.7 0.00 0.00 0.00 41 990.7
20220524153100 64 49 0.0 3.5 0.00 0.00 0.00 43 991.0
20220524151605 63 124 1.7 6.1 0.00 0.00 0.00 45 991.1
20220524150056 62 111 0.9 7.0 0.00 0.00 0.00 48 991.1
20220524144556 61 92 0.9 7.0 0.00 0.00 0.00 47 991.2
20220524143109 60 129 0.9 5.2 0.00 0.00 0.00 50 991.2
20220524141607 59 61 0.0 4.3 0.00 0.00 0.00 53 991.4
20220524140112 58 84 0.9 6.1 0.00 0.00 0.00 53 991.5
20220524134655 57 90 0.0 3.5 0.00 0.00 0.00 57 991.5
20220524133037 56 105 0.9 4.3 0.00 0.00 0.00 56 991.5
20220524131536 55 115 0.9 4.3 0.00 0.00 0.00 59 991.5
20220524130025 54 119 0.0 2.6 0.00 0.00 0.00 62 991.2
20220524124524 53 131 0.0 1.7 0.00 0.00 0.00 66 991.7
20220524123032 52 101 0.0 1.7 0.00 0.00 0.00 69 991.6
20220524121524 51 115 0.0 0.9 0.00 0.00 0.00 73 991.4
20220524120030 50 116 0.0 0.0 0.00 0.00 0.00 76 990.9
20220524114531 49 121 0.0 0.0 0.00 0.00 0.00 78 991.1
20220524113021 48 121 0.0 0.0 0.00 0.00 0.00 79 991.0
20220524111536 48 122 0.0 0.0 0.00 0.00 0.00 79 990.6
20220524110009 47 122 0.0 0.0 0.00 0.00 0.00 78 991.1
20220524104509 47 122 0.0 0.0 0.00 0.00 0.00 78 991.2
20220524103009 47 122 0.0 0.0 0.00 0.00 0.00 78 990.6
20220524101508 47 122 0.0 0.0 0.00 0.00 0.00 79 991.1
20220524100007 47 122 0.0 0.0 0.00 0.00 0.00 81 990.9
20220524094508 47 122 0.0 0.0 0.00 0.00 0.00 80 990.4
20220524093006 47 122 0.0 0.0 0.00 0.00 0.00 78 990.9
20220524091503 47 122 0.0 0.0 0.00 0.00 0.00 77 990.5
20220524090052 47 122 0.0 0.0 0.00 0.00 0.00 77 990.5
20220524084550 47 122 0.0 0.0 0.00 0.00 0.00 76 991.0
20220524083052 47 122 0.0 0.0 0.00 0.00 0.00 75 990.7
20220524081548 47 122 0.0 0.0 0.00 0.00 0.00 74 990.6
20220524080106 48 122 0.0 0.0 0.00 0.00 0.00 73 991.1
20220524074545 48 122 0.0 0.0 0.00 0.00 0.00 71 990.6
20220524073054 49 122 0.0 0.0 0.00 0.00 0.00 69 990.7
20220524071558 49 122 0.0 0.0 0.00 0.00 0.00 67 991.2
20220524070025 50 122 0.0 0.0 0.00 0.00 0.00 61 990.9
20220524064541 51 122 0.0 0.0 0.00 0.00 0.00 60 990.5
20220524063024 51 122 0.0 0.0 0.00 0.00 0.00 59 990.9
20220524061526 51 122 0.0 0.0 0.00 0.00 0.00 58 990.9
20220524060023 52 122 0.0 0.9 0.00 0.00 0.00 58 990.7
20220524054533 51 102 0.0 0.0 0.00 0.00 0.00 60 990.5
20220524053022 51 101 0.0 0.9 0.00 0.00 0.00 62 990.9
20220524051535 50 102 0.0 0.9 0.00 0.00 0.00 64 991.1
20220524050021 50 98 0.0 0.0 0.00 0.00 0.00 63 990.6
20220524044513 51 98 0.0 0.0 0.00 0.00 0.00 61 990.6
20220524043003 52 99 0.0 0.0 0.00 0.00 0.00 59 991.0
20220524041501 52 98 0.0 0.0 0.00 0.00 0.00 56 991.1
20220524040057 54 98 0.0 0.0 0.00 0.00 0.00 54 991.2
20220524034555 54 98 0.0 0.0 0.00 0.00 0.00 53 991.1
20220524033054 55 98 0.0 0.0 0.00 0.00 0.00 51 991.1
20220524031552 55 99 0.0 0.9 0.00 0.00 0.00 50 991.0
20220524030049 56 133 0.0 0.0 0.00 0.00 0.00 48 990.9
20220524024535 57 105 0.0 0.9 0.00 0.00 0.00 47 990.9
20220524023040 57 104 0.0 1.7 0.00 0.00 0.00 45 990.8
20220524021531 58 98 0.0 0.0 0.00 0.00 0.00 44 990.7
20220524020027 59 104 0.0 0.9 0.00 0.00 0.00 43 990.7